Helicity
112 65 64 43 52 66 63 95 124 133 106 126 144 123 84 61 61 139 180 152 133 71 4 56 94 75 80 80 71 65 66 56 57 57 62 66 66 64 64 58 55 54 55
156 152 131 73 80 76 85 104 134 133 143 124 155 133 99 92 99 85 52 61 43 35 15 45 75 91 82 78 83 71 69 61 58 61 61 62 65 69 68 54 46 51 51
189 232 207 136 122 121 147 139 177 155 173 175 130 156 112 98 134 157 139 91 79 46 -5 5 73 89 99 97 83 81 73 67 63 63 67 70 75 74 65 51 48 43 37
177 219 195 193 198 177 137 166 184 190 172 151 163 172 215 90 130 156 148 98 -1 45 40 57 85 88 100 96 82 67 65 67 67 65 63 64 65 59 51 43 42 49 54
179 220 197 223 254 230 281 224 200 200 192 192 211 237 277 242 99 90 54 74 93 74 119 164 140 144 110 110 78 79 71 67 66 62 60 58 57 50 45 43 60 48 34
114 195 245 264 299 309 275 317 257 269 218 217 266 300 300 310 305 148 123 129 132 141 155 179 176 184 173 123 87 69 61 55 55 55 55 57 55 41 35 40 55 29 34
95 156 224 274 294 274 294 265 357 381 353 261 323 297 351 304 289 320 220 186 175 190 201 191 168 142 173 146 103 93 79 63 52 51 50 46 47 40 35 34 41 46 46
77 120 163 176 198 269 231 193 286 402 406 417 331 292 319 307 326 293 240 239 212 172 225 191 151 147 145 122 113 107 101 92 77 66 62 55 46 37 30 35 42 43 59
72 77 111 150 209 314 313 339 373 381 410 320 374 388 343 360 357 310 270 229 210 214 206 224 164 148 137 130 99 93 103 97 87 74 63 53 45 38 40 57 59 65 57
88 78 80 124 168 239 236 258 312 312 364 315 385 390 433 348 443 341 241 214 212 191 184 170 138 158 148 129 129 126 107 95 81 80 74 67 55 50 60 67 64 72 69
110 124 119 102 165 212 246 174 275 257 280 396 357 465 437 487 390 419 336 248 196 178 178 157 142 145 146 130 114 118 107 95 83 75 65 62 61 69 75 77 78 86 80
136 141 137 142 132 174 226 280 302 283 293 322 349 365 438 466 399 429 486 264 207 170 161 158 148 144 135 130 130 128 110 102 89 79 75 69 75 82 82 89 84 93 99
165 155 153 153 155 144 120 173 256 253 272 354 399 412 399 341 388 348 352 348 209 174 146 139 130 141 144 134 122 113 111 102 97 89 84 82 93 87 92 85 94 95 101
121 144 162 157 136 161 154 170 195 276 239 381 346 303 351 242 294 244 305 304 284 211 151 160 136 141 152 129 140 122 98 113 104 89 85 89 91 87 86 95 104 90 81
117 117 119 140 153 155 178 194 196 218 299 331 322 279 222 310 241 258 257 182 228 119 90 136 140 117 145 148 142 119 105 113 90 89 101 94 77 112 119 108 91 71 70
88 109 94 117 118 127 135 163 199 228 276 289 361 323 361 325 289 267 218 181 205 150 146 174 123 113 140 144 149 122 114 99 100 106 101 76 107 105 89 88 75 69 82
74 68 95 80 96 123 128 179 187 243 281 337 383 296 320 309 325 219 221 178 166 192 239 175 174 125 137 131 125 111 106 104 92 85 86 100 119 87 80 81 70 77 77
35 41 41 87 126 150 143 160 208 219 242 285 302 291 229 293 331 222 207 188 175 182 169 177 139 130 109 115 121 119 109 100 87 68 61 98 99 80 79 69 77 74 78
46 66 90 112 125 141 192 161 197 200 277 251 266 256 306 317 317 248 204 190 169 204 155 158 176 157 155 125 115 124 102 68 68 79 77 60 64 73 70 76 70 68 74
99 97 129 113 145 172 182 190 176 195 238 241 292 274 246 233 231 185 191 147 139 130 167 191 192 155 108 126 129 121 100 73 76 84 63 53 59 70 63 48 59 76 84
77 125 153 193 179 165 189 214 210 274 302 320 348 343 342 270 219 186 161 156 143 158 166 150 139 120 127 122 110 95 74 72 69 68 67 69 85 76 66 61 78 87 89
155 157 149 142 157 171 115 173 244 297 274 322 338 310 294 255 268 184 233 222 169 163 145 120 140 161 143 106 75 68 72 66 60 80 84 83 74 73 81 81 78 70 84
153 164 137 138 142 154 106 218 241 307 343 405 373 337 339 287 248 277 279 300 209 171 170 147 142 109 95 72 72 63 63 62 60 84 75 64 86 86 79 81 91 96 97
136 201 135 128 132 128 133 204 313 357 434 426 344 318 280 226 254 237 174 175 200 202 146 108 103 100 104 91 78 74 69 63 59 62 66 54 79 93 100 98 100 106 87
88 124 178 199 206 166 161 230 356 384 432 432 332 265 241 210 144 147 184 175 124 127 106 121 131 126 108 98 75 52 71 61 52 70 79 61 70 104 101 92 104 79 48
108 124 152 186 171 164 140 202 303 292 267 253 248 226 198 165 150 137 94 111 129 86 56 71 82 87 76 77 84 80 61 60 52 41 84 83 102 105 106 72 81 69 61
Wind_Speed
31 33 35 35 35 33 31 31 30 29 30 25 23 26 24 20 14 10 5 2 7 10 12 16 17 15 17 18 20 21 24 25 27 30 32 34 36 38 40 43 45 48 50
44 32 37 36 35 36 33 32 31 30 31 29 28 30 27 21 16 6 5 6 7 9 10 13 13 13 15 17 20 22 25 27 30 32 34 37 38 41 43 45 47 50 53
40 47 45 41 34 34 33 31 32 32 32 32 31 31 30 21 15 13 14 16 13 9 10 13 10 11 14 18 21 24 26 29 32 35 38 40 42 44 46 47 49 52 55
35 35 35 28 40 33 37 35 33 36 37 36 35 36 34 26 19 21 18 15 15 16 15 13 9 10 14 19 23 26 29 32 34 37 40 43 45 46 48 50 52 55 57
40 37 36 34 35 40 34 38 33 33 40 39 37 38 37 35 27 23 22 23 23 20 19 14 13 12 14 20 25 29 32 35 38 40 43 45 48 49 50 51 54 57 58
43 43 44 40 36 31 31 28 36 33 38 39 36 41 39 38 37 32 28 26 23 21 17 14 13 18 19 23 28 32 35 37 40 43 46 48 50 51 52 53 57 58 60
40 39 40 40 41 40 42 38 32 31 41 44 38 41 41 42 40 36 35 30 26 25 21 20 21 23 25 27 32 36 38 40 42 45 48 49 52 52 54 57 59 62 62
39 38 35 33 37 45 43 41 38 37 35 33 53 48 55 50 45 42 37 35 32 30 28 29 29 30 29 32 34 38 41 43 46 49 51 53 54 55 56 58 61 63 65
39 37 38 35 33 37 46 45 45 44 43 41 27 44 53 59 47 45 42 42 39 36 33 34 34 35 34 34 35 38 42 45 47 50 53 55 56 57 60 62 64 66 67
36 36 36 36 36 38 40 42 43 42 42 46 45 42 32 35 49 53 49 44 45 43 41 38 37 37 37 36 36 38 42 46 49 52 55 57 59 60 63 65 67 68 70
40 35 34 35 35 36 40 42 44 43 42 43 49 50 50 43 39 46 54 45 44 45 45 47 44 38 38 38 38 39 43 48 52 54 57 59 62 64 65 67 69 69 70
40 36 35 36 34 34 34 38 40 47 48 44 46 47 52 55 50 39 43 43 42 42 43 49 48 45 42 42 41 41 44 49 52 53 55 58 62 65 65 67 69 71 72
40 38 35 34 35 35 34 31 38 43 47 48 47 48 47 47 45 48 43 47 47 44 46 43 42 38 33 35 42 44 46 50 52 55 57 62 63 64 67 68 70 72 73
42 36 35 36 36 34 35 34 32 33 37 47 48 44 41 41 37 40 48 38 41 45 40 47 39 35 33 30 35 39 43 49 53 56 59 61 64 68 68 67 68 71 70
38 36 34 34 32 34 33 35 36 39 38 38 43 52 55 50 46 40 42 41 48 55 55 40 42 34 35 37 38 39 45 49 54 57 62 64 65 63 67 68 67 69 69
37 36 32 30 31 32 33 32 35 35 35 38 38 40 47 55 48 52 53 54 50 52 52 40 37 36 35 38 38 42 46 49 52 59 62 60 60 64 64 66 66 67 68
34 29 28 28 29 30 31 34 35 33 33 35 35 36 41 44 49 50 49 50 48 47 51 45 40 38 34 36 38 37 42 49 54 57 57 53 58 63 64 66 65 65 70
27 25 27 28 29 30 29 31 34 32 33 38 38 37 36 42 44 46 47 47 46 43 45 45 37 38 35 28 31 38 43 48 51 56 55 51 57 62 65 63 64 68 70
26 25 22 22 24 28 31 30 30 32 32 32 36 36 30 30 34 43 44 44 41 39 37 38 39 32 33 33 36 40 44 47 50 53 50 49 60 62 60 60 64 68 68
23 22 21 22 28 28 29 29 28 31 31 31 30 35 34 26 30 29 33 33 30 33 26 25 32 31 33 36 39 43 46 48 54 49 46 55 60 58 55 60 63 64 67
27 21 19 16 18 21 26 28 28 27 26 28 25 26 29 29 26 28 20 17 22 25 26 29 33 34 36 35 40 41 44 50 49 45 55 59 56 55 57 59 62 64 65
31 20 18 14 14 19 19 19 19 18 19 19 15 18 17 16 14 16 16 19 24 22 29 32 29 29 33 35 36 40 44 48 50 44 58 60 50 57 58 63 63 60 68
27 21 17 12 12 15 12 14 12 14 13 16 16 7 10 10 10 12 14 20 23 26 24 24 24 28 31 34 37 40 44 48 51 52 57 55 51 62 62 63 62 63 73
26 20 13 12 4 4 1 2 4 5 7 10 13 10 5 3 11 12 14 17 18 22 23 24 24 27 29 32 36 40 43 48 45 45 52 54 60 66 66 65 58 68 77
20 15 9 8 3 9 13 16 11 7 4 8 4 5 6 6 6 4 6 9 15 19 22 23 23 25 28 33 38 40 45 49 47 49 50 62 62 72 68 61 63 73 74
21 17 12 4 4 10 10 14 10 10 9 7 6 2 1 2 4 9 13 11 12 16 18 22 25 28 32 36 40 41 42 46 51 53 53 65 66 74 72 61 71 69 71
Wind_Direction
273 281 286 286 279 275 272 271 269 271 269 267 270 274 281 292 302 291 291 344 19 20 32 28 16 17 16 17 10 3 354 349 346 346 347 346 347 347 347 346 346 345 344
269 275 283 282 278 276 272 272 270 271 268 268 269 272 276 283 282 268 262 306 337 341 352 5 8 6 5 4 359 353 347 341 340 340 339 340 341 341 342 342 343 343 341
272 276 268 272 278 274 275 273 270 273 269 269 268 270 272 274 267 263 274 289 304 317 340 345 349 351 350 345 343 341 340 339 336 335 335 336 337 337 337 338 338 337 337
269 264 264 268 267 279 272 273 270 270 269 268 268 267 269 269 264 271 275 282 285 299 313 323 330 335 340 335 333 332 332 332 333 333 332 332 333 333 334 335 335 335 335
271 264 261 262 265 267 272 264 270 271 268 267 268 268 265 269 267 269 269 277 285 292 298 300 310 319 326 329 330 328 328 327 327 328 329 330 331 332 333 333 334 333 334
277 270 268 263 259 255 260 255 265 271 270 266 267 266 267 270 274 273 275 282 285 288 290 287 295 307 314 317 320 322 324 324 325 325 326 328 330 330 330 331 332 332 332
281 276 273 265 258 254 249 263 257 269 266 262 261 266 268 272 271 275 279 280 280 284 284 283 291 297 303 309 314 317 320 321 323 323 324 327 327 329 330 329 330 330 330
284 280 274 270 259 255 255 253 260 260 269 260 260 257 260 267 271 274 276 276 278 282 282 282 287 292 297 303 309 314 317 319 321 321 324 325 325 325 327 328 329 329 328
285 281 278 270 267 257 258 253 253 256 260 252 244 262 264 264 260 274 273 275 277 280 282 283 285 290 294 300 306 311 315 318 321 322 323 323 324 325 325 326 326 327 326
285 283 280 277 269 262 257 255 254 255 252 250 254 261 267 267 271 267 274 272 277 277 278 281 285 288 292 297 303 309 314 317 318 321 322 322 322 324 324 324 324 324 324
285 282 280 281 274 268 261 254 254 250 250 248 251 259 265 267 264 272 270 270 279 278 276 276 281 287 290 295 300 306 311 313 317 320 321 321 320 322 324 324 323 324 324
285 281 281 279 276 269 257 265 254 254 253 253 253 256 259 260 262 265 277 276 274 277 278 277 279 283 286 289 294 300 306 311 315 320 322 324 323 322 324 325 324 324 324
284 282 280 277 277 272 266 262 257 255 253 253 255 260 261 260 261 264 276 277 277 281 279 282 285 287 289 291 292 295 302 308 314 317 321 319 323 324 324 325 324 323 323
286 283 281 280 278 273 269 270 256 247 247 259 254 254 259 260 261 267 268 270 280 282 285 284 285 291 290 293 296 299 305 308 313 316 318 321 323 323 324 324 324 323 324
290 285 283 278 276 275 270 269 263 255 247 252 255 257 258 259 263 259 276 272 276 279 280 288 293 287 289 291 295 301 303 308 311 315 318 321 321 324 324 324 325 324 324
291 289 281 277 276 275 272 268 268 262 249 253 255 255 259 257 257 267 270 277 277 280 283 294 295 293 289 293 298 302 306 311 314 316 320 322 324 325 325 326 326 325 326
295 287 282 279 278 276 273 272 267 261 252 254 253 255 254 260 267 265 269 272 277 280 281 290 297 296 297 295 302 309 314 315 316 319 322 326 326 325 326 326 327 328 327
298 291 288 282 280 277 273 273 266 263 258 256 250 257 259 267 265 267 266 275 272 279 282 284 292 292 300 309 314 316 318 320 320 320 322 326 327 326 328 329 330 329 330
301 294 292 285 276 276 275 272 266 264 261 260 254 252 256 261 268 267 270 270 277 281 283 286 289 301 308 312 314 315 318 321 324 324 326 326 325 329 331 333 333 332 332
297 301 295 283 279 278 273 269 269 269 264 258 257 252 260 262 262 272 271 278 281 279 291 295 298 304 312 313 314 314 318 323 322 329 330 328 328 333 335 335 335 335 335
303 304 299 287 282 281 271 267 266 266 259 262 263 261 260 265 263 265 276 288 285 285 293 297 303 305 306 310 311 322 324 325 328 331 328 329 335 338 338 338 338 338 337
312 308 304 292 281 282 275 268 264 265 249 246 248 254 257 260 269 262 290 300 293 299 296 301 304 310 309 312 323 327 328 327 327 338 333 334 342 340 341 340 340 340 339
319 314 309 300 300 294 270 270 256 258 231 237 231 205 255 252 254 272 300 307 310 307 315 311 318 318 317 323 322 325 326 328 328 336 339 340 346 341 342 342 342 342 340
328 322 316 304 344 336 144 146 197 170 181 234 240 246 234 175 269 290 302 306 322 327 333 330 330 328 331 333 331 332 334 335 343 346 347 343 345 342 344 343 344 343 341
1 8 333 302 34 94 109 110 116 135 193 226 219 255 261 279 285 343 0 348 334 337 342 351 355 355 349 343 340 340 339 341 345 347 352 346 346 343 345 347 347 345 343
33 27 32 357 109 98 107 100 112 114 129 132 97 47 308 71 75 292 300 326 350 341 349 355 355 353 350 348 349 353 354 350 347 348 354 348 347 347 345 350 347 347 346